Regional Weather Roundup
Issued by NWS

Home | Current Version | Previous Version | Text Only | Print | Product List | Glossary Off
Versions: 1 2 3 4 5 6 7 8 9 10 11 12 13 14 15 16 17 18 19 20 21 22 23 24 25 26 27 28 29 30 31 32 33 34 35 36 37 38 39 40 41 42 43 44 45 46 47 48 49 50

000
ASUS43 KIND 272209
RWRIN

WEATHER ROUNDUP FOR INDIANA
NATIONAL WEATHER SERVICE INDIANAPOLIS IN
600 PM EDT MON JUL 27 2015

NOTE: "FAIR" INDICATES FEW OR NO CLOUDS BELOW 12,000 FEET WITH NO
SIGNIFICANT WEATHER AND/OR OBSTRUCTIONS TO VISIBILITY.

* - STATION DOES NOT REPORT WEATHER SUCH AS PRECIPITATION OR FOG.

+ - STATION NOT QUALITY CONTROLLED BY THE NATIONAL WEATHER SERVICE.
    USE DATA WITH CAUTION...ESPECIALLY DEWPOINT AND RELATIVE
    HUMIDITY OBSERVATIONS.

INZ001>003-010>013-019-020-272300-
NORTHWEST INDIANA

CITY           SKY/WX    TMP DP  RH WIND       PRES   REMARKS
GARY /AIRPORT/ MOSUNNY   81  68  65 NE8       29.98F
KNOX *+        FAIR      86  61  42 E10       29.98S
LA PORTE +     FAIR      87  67  50 E6        30.01S
MICHIGAN CITY+ FAIR      82  64  54 N8        29.99F
MONTICELLO +   FAIR      84  71  65 E8        29.96F
RENSSELAER +   FAIR      86  68  54 E9        29.96F
VALPARAISO     FAIR      86  63  45 E8        29.99F

$$

LMZ046-743>745-272300-
SOUTHERN LAKE MICHIGAN

STATION/POSITION TIME  TEMP    WIND        PRES    WAVE
                       AIR SEA DIR/SP/G            HT
                 (UTC) (F)     (DEG/KT/KT) (MB)    (FT)
BURNS HARBOR     2100   76      30/ 10/ 13 1016.3S
MICHIGAN CITY    2100   76     360/ 11/ 12   N/A
5NW MICH CITY    2200   76 76   40/ 10/ 12   N/A     1

$$

INZ004-005-014>016-021>024-272300-
NORTH CENTRAL INDIANA

CITY           SKY/WX    TMP DP  RH WIND       PRES   REMARKS
ELKHART        FAIR      86  61  42 NE8       30.01F
GOSHEN         FAIR      85  64  49 E7        30.00F
LOGANSPORT +   FAIR      84  57  39 NE6       29.98F
PERU/GRISSOM   FAIR      85  66  53 E10       29.97F
ROCHESTER +    FAIR      88  61  40 E5        30.00S
SOUTH BEND     FAIR      87  61  41 E8        30.01S
WARSAW +       FAIR      86  64  48 E8        30.00F

$$

INZ006>009-017-018-025>027-272300-
NORTHEAST INDIANA

CITY           SKY/WX    TMP DP  RH WIND       PRES   REMARKS
ANGOLA *+      SUNNY     84  81  89 E8        30.01F HX  98
AUBURN +       FAIR      86  54  32 NE3       30.01F
FORT WAYNE     PTSUNNY   85  61  44 E9        30.00S
HUNTINGTON +   FAIR      84  60  42 E5        29.98F

$$

INZ028-029-035-036-043>045-051>053-272300-
WEST CENTRAL INDIANA

CITY           SKY/WX    TMP DP  RH WIND       PRES   REMARKS
CRAWFORDSVL +  FAIR      83  68  61 CALM        N/A
GREENCASTLE +  FAIR      84  68  58 CALM      29.95F
LAFAYETTE      FAIR      83  72  69 E9        29.94F
TERRE HAUTE    FAIR      85  74  69 NE8       29.92F

$$

INZ030>032-037>040-046>048-054>057-064-065-272300-
CENTRAL INDIANA

CITY           SKY/WX    TMP DP  RH WIND       PRES   REMARKS
COLUMBUS       MOSUNNY   86  68  54 N3        29.94F
FISHERS *+     CLOUDY    79  75  89 E5        29.96S
FRANKFORT +    PTSUNNY   82  74  77 NE6       29.98F
GREENWOOD *+   FAIR      86  70  58 SE6       29.95F
INDIANAPOLIS   FAIR      88  69  53 CALM      29.94F
-EAGLE CREEK   FAIR      86  71  60 NW3       29.94F
KOKOMO *+      FAIR      84  68  58 E10       29.97F
MARION +       PTSUNNY   82  66  57 E8        29.99S HAZE
MT COMFORT *+  FAIR      84  77  79 E5        29.96F
SHELBYVILLE    FAIR      87  74  64 E3        29.94F HX  95
ZIONSVILLE +   PTSUNNY   84  71  64 E7        29.97S

$$

INZ033-034-041-042-049-050-058-059-272300-
EAST CENTRAL INDIANA

CITY           SKY/WX    TMP DP  RH WIND       PRES   REMARKS
MUNCIE         FAIR      82  71  69 SE8       29.98F

$$

INZ060-061-067>069-081>083-085>088-272300-
SOUTHWEST INDIANA

CITY           SKY/WX    TMP DP  RH WIND       PRES   REMARKS
EVANSVILLE     FAIR      89  75  63 S5        29.92F HX  99
HUNTINGBURG *+ FAIR      88  75  66 S3        29.92F HX  97
WASHINGTON +   FAIR      87  72  62 CALM      29.91F

$$

INZ062-063-066-070>080-084-089>092-272300-
SOUTH CENTRAL AND SOUTHEAST INDIANA

CITY           SKY/WX    TMP DP  RH WIND       PRES   REMARKS
BLOOMINGTON    PTSUNNY   87  74  64 VRB3      29.94F HX  95
MADISON *+     FAIR      88  70  55 CALM      29.96F
NORTH VERNON + FAIR      88  70  55 CALM      29.95F
SEYMOUR +      FAIR      91  73  55 CALM      29.93F HX 100

$$




USA.gov is the U.S. government's official web portal to all federal, state and local government web resources and services.